{"data":{"norad_id":68427,"epoch":"2026-05-24T20:30:36.157824Z","epoch_age_seconds":97764,"freshness":"FRESH","line1":"1 68427U 26067M   26144.85458516  .00007797  00000+0  37673-3 0  9995","line2":"2 68427  97.4528 103.7084 0003777  79.4218 280.7442 15.18904593  8406","mean_motion":15.18904593,"eccentricity":0.0003777,"inclination_deg":97.4528,"raan_deg":103.7084,"arg_perigee_deg":79.4218,"mean_anomaly_deg":280.7442,"bstar":0.00037673,"rev_number":840,"period_min":94.80516463222,"perigee_km":506.54862264762,"apogee_km":511.75127921036,"semimajor_km":6887.286950929,"source":"CELESTRAK","updated_at":"2026-05-25T13:38:07.813498Z"}}